DW8427 Weather Reports


time (UTC)temp
F
wind
direction
speed
knots
gust
knots
rain 1hr
in
rain 24hr
in
rain mn
in
humidity
%
barometer
mb
20260503021526 68 182 0.0 2.6 0.00 0.00 0.00 61 1009.4
20260503020026 69 219 0.0 0.9 0.00 0.00 0.00 59 1009.3
20260503014525 69 137 0.0 0.9 0.00 0.00 0.00 58 1009.3
20260503013025 70 179 0.0 0.0 0.00 0.00 0.00 58 1009.4
20260503011524 71 150 0.0 0.9 0.00 0.00 0.00 58 1009.3
20260503010025 72 160 0.0 0.9 0.00 0.00 0.00 57 1009.3
20260503004529 73 132 0.0 0.0 0.00 0.00 0.00 55 1009.3
20260503003038 73 152 0.0 3.5 0.00 0.00 0.00 53 1009.4
20260503001541 73 118 0.0 1.7 0.00 0.00 0.00 52 1009.5
20260503000019 73 169 0.0 3.5 0.00 0.00 0.00 54 1009.6
20260502234520 73 121 0.0 3.5 0.00 0.00 0.00 52 1009.7
20260502233026 74 100 0.0 0.9 0.00 0.00 0.00 53 1009.7
20260502231517 74 172 0.0 0.9 0.00 0.00 0.00 53 1009.8
20260502230013 73 270 0.0 2.6 0.00 0.00 0.00 55 1010.1
20260502224511 74 260 0.0 3.5 0.00 0.00 0.00 54 1010.3
20260502223015 74 124 0.0 2.6 0.00 0.00 0.00 53 1010.5
20260502221508 72 272 0.0 5.2 0.00 0.00 0.00 55 1010.8
20260502220008 74 217 0.0 6.1 0.00 0.00 0.00 54 1011.0
20260502214507 73 129 0.0 5.2 0.00 0.00 0.00 56 1011.2
20260502213004 73 158 0.0 2.6 0.00 0.00 0.00 57 1011.3
20260502211506 73 155 0.0 0.9 0.00 0.00 0.00 57 1011.5
20260502210002 72 291 0.0 6.1 0.00 0.00 0.00 56 1011.7
20260502204559 71 140 0.0 6.1 0.00 0.00 0.00 58 1011.8
20260502203056 71 158 0.0 2.6 0.00 0.00 0.00 60 1011.9
20260502201609 69 213 1.7 5.2 0.00 0.00 0.00 59 1012.1
20260502200054 68 79 0.0 5.2 0.00 0.00 0.00 60 1012.2
20260502194551 67 122 0.0 4.3 0.00 0.00 0.00 62 1012.2
20260502193050 67 140 0.9 3.5 0.00 0.00 0.00 62 1012.4
20260502191549 66 220 0.0 2.6 0.00 0.00 0.00 66 1012.6
20260502190047 65 34 0.0 0.9 0.00 0.00 0.00 67 1012.8
20260502184559 64 83 0.0 1.7 0.00 0.00 0.00 67 1012.5
20260502183045 64 145 0.9 4.3 0.00 0.00 0.00 66 1012.6
20260502181542 64 116 0.0 1.7 0.00 0.00 0.00 67 1012.6
20260502163034 59 116 0.0 2.6 0.00 0.00 0.00 75 1012.2
20260502161535 59 101 0.0 1.7 0.00 0.00 0.00 76 1012.2
20260502151523 56 90 0.0 0.0 0.00 0.00 0.00 79 1011.9
20260502123008 54 134 0.0 0.0 0.00 0.00 0.00 79 1010.8
20260502121510 55 124 0.0 0.0 0.00 0.00 0.00 78 1010.8
20260502114510 55 122 0.0 0.9 0.00 0.00 0.00 78 1011.0
20260502113002 55 113 0.0 0.0 0.00 0.00 0.00 77 1011.0
20260502111601 55 115 0.0 0.0 0.00 0.00 0.00 77 1010.9
20260502104557 56 115 0.0 3.5 0.00 0.00 0.00 78 1011.0
20260502103101 56 110 0.0 1.7 0.00 0.00 0.00 79 1011.1
20260502101622 57 125 0.0 1.7 0.00 0.00 0.00 80 1011.1
20260502100114 57 101 0.0 1.7 0.00 0.00 0.00 80 1011.1
20260502071529 60 140 0.0 2.6 0.00 0.00 0.00 75 1011.4
20260502070033 61 132 0.0 3.5 0.00 0.00 0.00 74 1011.5
20260502064527 61 151 0.0 4.3 0.00 0.00 0.00 74 1011.4
20260502063030 62 120 0.9 4.3 0.00 0.00 0.00 74 1011.3
20260502061525 63 113 0.0 6.1 0.00 0.00 0.00 74 1011.4
20260502060024 64 134 0.9 4.3 0.00 0.00 0.00 73 1011.4
20260502054524 65 140 0.0 3.5 0.00 0.00 0.00 72 1011.4
20260502053024 66 134 0.0 1.7 0.00 0.00 0.00 71 1011.4
20260502051528 67 137 0.0 0.9 0.00 0.00 0.00 70 1011.4
20260502050022 67 127 0.0 0.9 0.00 0.00 0.00 70 1011.3
20260502044521 68 98 0.0 0.9 0.00 0.00 0.00 69 1011.2
20260502043021 69 110 0.0 0.9 0.00 0.00 0.00 67 1011.0
20260502041521 70 96 0.0 0.9 0.00 0.00 0.00 65 1010.9
20260502040032 71 155 0.0 0.0 0.00 0.00 0.00 62 1010.6
20260502034520 72 138 0.0 1.7 0.00 0.00 0.00 60 1010.3
20260502033019 73 139 0.0 0.0 0.00 0.00 0.00 61 1010.3
20260502031520 74 166 0.0 0.0 0.00 0.00 0.00 61 1010.1
20260502030018 76 165 0.0 0.0 0.00 0.00 0.00 61 1009.9
20260502024534 77 122 0.0 0.9 0.00 0.00 0.00 60 1009.8
20260502023018 78 86 0.0 1.7 0.00 0.00 0.00 59 1009.7